Time,TemperatureF,DewpointF,PressureIn,WindDirection,WindDirectionDegrees,WindSpeedMPH,WindSpeedGustMPH,Humidity,HourlyPrecipIn,Conditions,Clouds,dailyrainin,SoftwareType,DateUTC
2013-04-07 00:05:00,54.3,33.9,30.11,ESE,123,1.0,3.0,46,0.00,,,0.00,Wunderground v.1.15,2013-04-07 04:05:00,
2013-04-07 00:10:00,54.2,34.4,30.11,ESE,123,1.0,1.0,47,0.00,,,0.00,Wunderground v.1.15,2013-04-07 04:10:00,
2013-04-07 00:15:00,54.3,34.5,30.10,ESE,123,1.0,2.0,47,0.00,,,0.00,Wunderground v.1.15,2013-04-07 04:15:00,
2013-04-07 00:20:00,54.3,35.0,30.11,ESE,123,1.0,1.0,48,0.00,,,0.00,Wunderground v.1.15,2013-04-07 04:20:00,
2013-04-07 00:25:00,54.2,34.4,30.11,ESE,122,1.0,1.0,47,0.00,,,0.00,Wunderground v.1.15,2013-04-07 04:25:00,
2013-04-07 00:35:00,54.2,34.4,30.10,ESE,119,1.0,2.0,47,0.00,,,0.00,Wunderground v.1.15,2013-04-07 04:35:00,
2013-04-07 01:00:00,53.8,35.1,30.11,SE,126,3.0,3.0,49,0.00,,,0.00,Wunderground v.1.15,2013-04-07 05:00:00,
2013-04-07 01:05:00,53.7,35.0,30.10,East,101,3.0,3.0,49,0.00,,,0.00,Wunderground v.1.15,2013-04-07 05:05:00,
2013-04-07 01:10:00,53.6,34.9,30.10,ESE,120,3.0,3.0,49,0.00,,,0.00,Wunderground v.1.15,2013-04-07 05:10:00,
2013-04-07 01:40:00,53.2,35.0,30.10,SE,126,2.0,2.0,50,0.00,,,0.00,Wunderground v.1.15,2013-04-07 05:40:00,
2013-04-07 01:45:00,53.2,35.0,30.10,ESE,123,2.0,3.0,50,0.00,,,0.00,Wunderground v.1.15,2013-04-07 05:45:00,
2013-04-07 01:50:00,53.2,35.0,30.10,SE,124,2.0,2.0,50,0.00,,,0.00,Wunderground v.1.15,2013-04-07 05:50:00,
2013-04-07 01:55:00,53.1,34.9,30.10,ESE,123,2.0,2.0,50,0.00,,,0.00,Wunderground v.1.15,2013-04-07 05:55:00,
2013-04-07 02:05:00,53.2,35.0,30.10,ESE,123,1.0,2.0,50,0.00,,,0.00,Wunderground v.1.15,2013-04-07 06:05:00,
2013-04-07 02:10:00,53.3,35.1,30.10,ESE,123,1.0,1.0,50,0.00,,,0.00,Wunderground v.1.15,2013-04-07 06:10:00,
2013-04-07 02:15:00,53.3,35.1,30.10,ESE,123,1.0,2.0,50,0.00,,,0.00,Wunderground v.1.15,2013-04-07 06:15:00,
2013-04-07 02:20:00,53.3,35.1,30.10,ESE,123,1.0,2.0,50,0.00,,,0.00,Wunderground v.1.15,2013-04-07 06:20:00,
2013-04-07 02:25:00,53.3,35.6,30.10,ESE,123,1.0,2.0,51,0.00,,,0.00,Wunderground v.1.15,2013-04-07 06:25:00,
2013-04-07 02:30:00,53.2,35.5,30.10,ESE,123,1.0,1.0,51,0.00,,,0.00,Wunderground v.1.15,2013-04-07 06:30:00,
2013-04-07 02:35:00,52.8,35.6,30.10,ESE,123,1.0,2.0,52,0.00,,,0.00,Wunderground v.1.15,2013-04-07 06:35:00,
2013-04-07 02:40:00,52.5,35.4,30.10,ESE,113,2.0,2.0,52,0.00,,,0.00,Wunderground v.1.15,2013-04-07 06:40:00,
2013-04-07 02:50:00,51.2,35.6,30.09,ESE,117,3.0,5.0,55,0.00,,,0.00,Wunderground v.1.15,2013-04-07 06:50:00,
2013-04-07 02:55:00,50.7,35.6,30.09,ESE,121,3.0,5.0,56,0.00,,,0.00,Wunderground v.1.15,2013-04-07 06:55:00,
2013-04-07 04:30:00,49.2,36.3,30.09,ENE,76,5.0,5.0,61,0.00,,,0.00,Wunderground v.1.15,2013-04-07 08:30:00,
2013-04-07 04:35:00,49.4,36.1,30.09,SE,129,5.0,5.0,60,0.00,,,0.00,Wunderground v.1.15,2013-04-07 08:35:00,
2013-04-07 04:40:00,49.3,35.6,30.09,ESE,117,4.0,4.0,59,0.00,,,0.00,Wunderground v.1.15,2013-04-07 08:40:00,
2013-04-07 04:45:00,49.4,35.2,30.09,ESE,118,3.0,4.0,58,0.00,,,0.00,Wunderground v.1.15,2013-04-07 08:45:00,
2013-04-07 04:50:00,49.5,35.3,30.09,ESE,107,3.0,3.0,58,0.00,,,0.00,Wunderground v.1.15,2013-04-07 08:50:00,
2013-04-07 04:55:00,49.4,35.2,30.09,ESE,123,3.0,4.0,58,0.00,,,0.00,Wunderground v.1.15,2013-04-07 08:55:00,
2013-04-07 05:00:00,49.3,34.3,30.09,ESE,106,3.0,3.0,56,0.00,,,0.00,Wunderground v.1.15,2013-04-07 09:00:00,
2013-04-07 05:05:00,49.6,34.1,30.09,ESE,112,2.0,3.0,55,0.00,,,0.00,Wunderground v.1.15,2013-04-07 09:05:00,
2013-04-07 05:15:00,49.6,33.6,30.09,ESE,118,2.0,3.0,54,0.00,,,0.00,Wunderground v.1.15,2013-04-07 09:15:00,
2013-04-07 05:20:00,49.4,33.4,30.09,SE,128,2.0,2.0,54,0.00,,,0.00,Wunderground v.1.15,2013-04-07 09:20:00,
2013-04-07 05:25:00,49.2,33.7,30.09,SE,128,2.0,2.0,55,0.00,,,0.00,Wunderground v.1.15,2013-04-07 09:25:00,
2013-04-07 05:30:00,49.1,33.6,30.09,ESE,108,2.0,2.0,55,0.00,,,0.00,Wunderground v.1.15,2013-04-07 09:30:00,
2013-04-07 05:35:00,48.8,33.3,30.09,ESE,107,2.0,2.0,55,0.00,,,0.00,Wunderground v.1.15,2013-04-07 09:35:00,
2013-04-07 05:40:00,49.0,33.5,30.09,ESE,113,2.0,2.0,55,0.00,,,0.00,Wunderground v.1.15,2013-04-07 09:40:00,
2013-04-07 05:45:00,48.9,33.4,30.09,ESE,113,3.0,3.0,55,0.00,,,0.00,Wunderground v.1.15,2013-04-07 09:45:00,
2013-04-07 05:50:00,49.0,33.1,30.09,ESE,123,3.0,3.0,54,0.00,,,0.00,Wunderground v.1.15,2013-04-07 09:50:00,
2013-04-07 05:55:00,49.1,33.6,30.09,ESE,121,2.0,3.0,55,0.00,,,0.00,Wunderground v.1.15,2013-04-07 09:55:00,
2013-04-07 06:00:00,49.1,33.6,30.09,ESE,121,2.0,2.0,55,0.00,,,0.00,Wunderground v.1.15,2013-04-07 10:00:00,
2013-04-07 06:05:00,49.3,33.3,30.09,ESE,122,2.0,2.0,54,0.00,,,0.00,Wunderground v.1.15,2013-04-07 10:05:00,
2013-04-07 06:10:00,49.5,33.5,30.09,ESE,122,2.0,4.0,54,0.00,,,0.00,Wunderground v.1.15,2013-04-07 10:10:00,
2013-04-07 08:30:00,50.9,37.1,30.13,SE,124,2.0,2.0,59,0.00,,,0.00,Wunderground v.1.15,2013-04-07 12:30:00,
2013-04-07 08:35:00,51.3,37.4,30.13,ESE,115,2.0,3.0,59,0.00,,,0.00,Wunderground v.1.15,2013-04-07 12:35:00,
2013-04-07 08:40:00,52.0,38.5,30.13,ESE,121,2.0,2.0,60,0.00,,,0.00,Wunderground v.1.15,2013-04-07 12:40:00,
2013-04-07 08:45:00,52.7,37.4,30.14,ESE,115,2.0,2.0,56,0.00,,,0.00,Wunderground v.1.15,2013-04-07 12:45:00,
2013-04-07 08:50:00,53.3,38.0,30.13,SE,126,4.0,4.0,56,0.00,,,0.00,Wunderground v.1.15,2013-04-07 12:50:00,
2013-04-07 08:55:00,53.7,37.9,30.13,ESE,110,5.0,5.0,55,0.00,,,0.00,Wunderground v.1.15,2013-04-07 12:55:00,
2013-04-07 09:00:00,53.9,38.1,30.14,SE,129,4.0,4.0,55,0.00,,,0.00,Wunderground v.1.15,2013-04-07 13:00:00,
2013-04-07 09:05:00,54.0,37.7,30.14,ESE,117,4.0,4.0,54,0.00,,,0.00,Wunderground v.1.15,2013-04-07 13:05:00,
2013-04-07 09:10:00,53.9,38.6,30.13,SE,129,5.0,5.0,56,0.00,,,0.00,Wunderground v.1.15,2013-04-07 13:10:00,
2013-04-07 09:15:00,54.2,38.4,30.14,ESE,109,5.0,5.0,55,0.00,,,0.00,Wunderground v.1.15,2013-04-07 13:15:00,
2013-04-07 09:20:00,54.2,38.4,30.14,ESE,117,5.0,5.0,55,0.00,,,0.00,Wunderground v.1.15,2013-04-07 13:20:00,
2013-04-07 09:25:00,54.3,38.9,30.13,East,101,6.0,6.0,56,0.00,,,0.00,Wunderground v.1.15,2013-04-07 13:25:00,
2013-04-07 09:30:00,54.8,39.8,30.13,SE,140,5.0,5.0,57,0.00,,,0.00,Wunderground v.1.15,2013-04-07 13:30:00,
2013-04-07 10:10:00,57.6,42.5,30.12,ESE,111,5.0,5.0,57,0.00,,,0.00,Wunderground v.1.15,2013-04-07 14:10:00,
2013-04-07 10:15:00,58.1,42.9,30.12,SE,124,5.0,5.0,57,0.00,,,0.00,Wunderground v.1.15,2013-04-07 14:15:00,
2013-04-07 10:20:00,58.1,42.5,30.13,SE,125,4.0,6.0,56,0.00,,,0.00,Wunderground v.1.15,2013-04-07 14:20:00,
2013-04-07 10:25:00,58.4,43.7,30.13,SE,130,4.0,6.0,58,0.00,,,0.00,Wunderground v.1.15,2013-04-07 14:25:00,
2013-04-07 10:30:00,58.5,43.3,30.13,ESE,110,4.0,4.0,57,0.00,,,0.00,Wunderground v.1.15,2013-04-07 14:30:00,
2013-04-07 10:35:00,58.7,44.0,30.13,East,93,5.0,5.0,58,0.00,,,0.00,Wunderground v.1.15,2013-04-07 14:35:00,
2013-04-07 10:40:00,58.8,44.9,30.13,ESE,123,5.0,5.0,60,0.00,,,0.00,Wunderground v.1.15,2013-04-07 14:40:00,
2013-04-07 10:45:00,59.1,45.2,30.13,SE,128,5.0,5.0,60,0.00,,,0.00,Wunderground v.1.15,2013-04-07 14:45:00,
2013-04-07 10:50:00,59.3,45.0,30.13,SE,142,5.0,8.0,59,0.00,,,0.00,Wunderground v.1.15,2013-04-07 14:50:00,
2013-04-07 10:55:00,59.0,45.6,30.13,ESE,121,6.0,8.0,61,0.00,,,0.00,Wunderground v.1.15,2013-04-07 14:55:00,
2013-04-07 11:00:00,59.0,45.6,30.13,SSW,210,6.0,6.0,61,0.00,,,0.00,Wunderground v.1.15,2013-04-07 15:00:00,
2013-04-07 11:05:00,59.6,46.1,30.13,ESE,106,5.0,7.0,61,0.00,,,0.00,Wunderground v.1.15,2013-04-07 15:05:00,
2013-04-07 11:10:00,59.9,46.8,30.13,SE,128,5.0,6.0,62,0.00,,,0.00,Wunderground v.1.15,2013-04-07 15:10:00,
2013-04-07 11:15:00,60.3,45.9,30.13,SE,129,5.0,6.0,59,0.00,,,0.00,Wunderground v.1.15,2013-04-07 15:15:00,
2013-04-07 11:20:00,60.8,46.8,30.13,SE,139,5.0,5.0,60,0.00,,,0.00,Wunderground v.1.15,2013-04-07 15:20:00,
2013-04-07 11:25:00,61.3,46.4,30.13,SE,127,4.0,6.0,58,0.00,,,0.00,Wunderground v.1.15,2013-04-07 15:25:00,
2013-04-07 11:30:00,61.1,47.1,30.13,ESE,117,4.0,7.0,60,0.00,,,0.00,Wunderground v.1.15,2013-04-07 15:30:00,
2013-04-07 11:35:00,61.0,45.7,30.13,SSE,158,6.0,7.0,57,0.00,,,0.00,Wunderground v.1.15,2013-04-07 15:35:00,
2013-04-07 11:40:00,61.1,46.7,30.14,ESE,123,6.0,6.0,59,0.00,,,0.00,Wunderground v.1.15,2013-04-07 15:40:00,
2013-04-07 11:45:00,61.2,47.2,30.13,SE,130,6.0,6.0,60,0.00,,,0.00,Wunderground v.1.15,2013-04-07 15:45:00,
2013-04-07 11:55:00,61.8,46.4,30.13,SSW,194,4.0,5.0,57,0.00,,,0.00,Wunderground v.1.15,2013-04-07 15:55:00,
2013-04-07 12:00:00,62.5,46.1,30.13,ESE,123,4.0,4.0,55,0.00,,,0.00,Wunderground v.1.15,2013-04-07 16:00:00,
2013-04-07 12:05:00,62.7,45.8,30.13,SE,125,4.0,4.0,54,0.00,,,0.00,Wunderground v.1.15,2013-04-07 16:05:00,
2013-04-07 12:10:00,63.1,46.2,30.12,East,99,3.0,4.0,54,0.00,,,0.00,Wunderground v.1.15,2013-04-07 16:10:00,
2013-04-07 12:20:00,63.3,46.4,30.12,SE,134,6.0,6.0,54,0.00,,,0.00,Wunderground v.1.15,2013-04-07 16:20:00,
2013-04-07 12:25:00,63.4,46.5,30.12,SE,128,5.0,6.0,54,0.00,,,0.00,Wunderground v.1.15,2013-04-07 16:25:00,
2013-04-07 12:30:00,63.9,46.4,30.11,ESE,121,4.0,9.0,53,0.00,,,0.00,Wunderground v.1.15,2013-04-07 16:30:00,
2013-04-07 12:35:00,64.3,45.3,30.11,ESE,103,5.0,9.0,50,0.00,,,0.00,Wunderground v.1.15,2013-04-07 16:35:00,
2013-04-07 12:40:00,64.2,46.2,30.11,SW,229,6.0,6.0,52,0.00,,,0.00,Wunderground v.1.15,2013-04-07 16:40:00,
2013-04-07 12:45:00,64.3,45.8,30.11,SSE,152,5.0,6.0,51,0.00,,,0.00,Wunderground v.1.15,2013-04-07 16:45:00,
2013-04-07 12:50:00,64.4,45.9,30.11,ESE,116,4.0,6.0,51,0.00,,,0.00,Wunderground v.1.15,2013-04-07 16:50:00,
2013-04-07 13:05:00,64.4,45.3,30.09,East,92,6.0,11.0,50,0.00,,,0.00,Wunderground v.1.15,2013-04-07 17:05:00,
2013-04-07 13:10:00,65.0,45.4,30.09,ESE,106,6.0,7.0,49,0.00,,,0.00,Wunderground v.1.15,2013-04-07 17:10:00,
2013-04-07 13:20:00,65.1,45.5,30.09,ESE,104,6.0,6.0,49,0.00,,,0.00,Wunderground v.1.15,2013-04-07 17:20:00,
2013-04-07 13:25:00,65.7,44.9,30.09,ESE,112,5.0,6.0,47,0.00,,,0.00,Wunderground v.1.15,2013-04-07 17:25:00,
2013-04-07 13:30:00,65.2,45.0,30.08,ESE,123,5.0,11.0,48,0.00,,,0.00,Wunderground v.1.15,2013-04-07 17:30:00,
2013-04-07 13:35:00,64.7,45.1,30.08,East,98,6.0,11.0,49,0.00,,,0.00,Wunderground v.1.15,2013-04-07 17:35:00,
2013-04-07 13:45:00,65.6,45.4,30.08,SE,131,4.0,11.0,48,0.00,,,0.00,Wunderground v.1.15,2013-04-07 17:45:00,
2013-04-07 13:50:00,65.6,45.4,30.07,ESE,112,5.0,6.0,48,0.00,,,0.00,Wunderground v.1.15,2013-04-07 17:50:00,
2013-04-07 14:00:00,66.0,44.6,30.06,ESE,117,5.0,6.0,46,0.00,,,0.00,Wunderground v.1.15,2013-04-07 18:00:00,
2013-04-07 14:05:00,65.9,45.1,30.06,ESE,121,5.0,6.0,47,0.00,,,0.00,Wunderground v.1.15,2013-04-07 18:05:00,
2013-04-07 14:10:00,66.2,45.4,30.06,SE,126,5.0,6.0,47,0.00,,,0.00,Wunderground v.1.15,2013-04-07 18:10:00,
2013-04-07 14:15:00,66.6,44.6,30.05,SW,218,5.0,6.0,45,0.00,,,0.00,Wunderground v.1.15,2013-04-07 18:15:00,
2013-04-07 14:20:00,66.8,44.8,30.05,ESE,119,4.0,7.0,45,0.00,,,0.00,Wunderground v.1.15,2013-04-07 18:20:00,
2013-04-07 14:25:00,66.3,44.9,30.05,ESE,105,5.0,10.0,46,0.00,,,0.00,Wunderground v.1.15,2013-04-07 18:25:00,
2013-04-07 14:30:00,66.1,45.3,30.05,SE,128,6.0,12.0,47,0.00,,,0.00,Wunderground v.1.15,2013-04-07 18:30:00,
2013-04-07 14:35:00,65.9,43.9,30.05,ESE,121,6.0,12.0,45,0.00,,,0.00,Wunderground v.1.15,2013-04-07 18:35:00,
2013-04-07 14:40:00,66.4,43.8,30.06,ESE,105,6.0,6.0,44,0.00,,,0.00,Wunderground v.1.15,2013-04-07 18:40:00,
2013-04-07 14:45:00,66.2,45.4,30.06,SE,125,5.0,6.0,47,0.00,,,0.00,Wunderground v.1.15,2013-04-07 18:45:00,
2013-04-07 14:50:00,66.5,45.1,30.05,ESE,110,5.0,5.0,46,0.00,,,0.00,Wunderground v.1.15,2013-04-07 18:50:00,
2013-04-07 14:55:00,66.3,43.7,30.05,ESE,105,6.0,6.0,44,0.00,,,0.00,Wunderground v.1.15,2013-04-07 18:55:00,
2013-04-07 15:00:00,66.4,44.4,30.05,SW,229,5.0,6.0,45,0.00,,,0.00,Wunderground v.1.15,2013-04-07 19:00:00,
2013-04-07 15:05:00,67.0,43.1,30.04,SW,234,3.0,6.0,42,0.00,,,0.00,Wunderground v.1.15,2013-04-07 19:05:00,
2013-04-07 15:10:00,67.3,43.4,30.04,SE,126,4.0,4.0,42,0.00,,,0.00,Wunderground v.1.15,2013-04-07 19:10:00,
2013-04-07 15:15:00,67.2,44.5,30.05,SE,128,4.0,7.0,44,0.00,,,0.00,Wunderground v.1.15,2013-04-07 19:15:00,
2013-04-07 15:20:00,66.8,43.6,30.04,SE,128,5.0,5.0,43,0.00,,,0.00,Wunderground v.1.15,2013-04-07 19:20:00,
2013-04-07 15:25:00,66.5,43.3,30.05,ESE,123,5.0,5.0,43,0.00,,,0.00,Wunderground v.1.15,2013-04-07 19:25:00,
2013-04-07 15:30:00,66.7,45.3,30.04,SE,124,3.0,3.0,46,0.00,,,0.00,Wunderground v.1.15,2013-04-07 19:30:00,
2013-04-07 15:35:00,67.0,44.4,30.04,East,98,3.0,9.0,44,0.00,,,0.00,Wunderground v.1.15,2013-04-07 19:35:00,
2013-04-07 15:40:00,67.1,44.4,30.04,ESE,120,4.0,7.0,44,0.00,,,0.00,Wunderground v.1.15,2013-04-07 19:40:00,
2013-04-07 15:45:00,66.9,44.9,30.03,SE,126,5.0,7.0,45,0.00,,,0.00,Wunderground v.1.15,2013-04-07 19:45:00,
2013-04-07 15:50:00,66.8,44.8,30.03,ESE,109,4.0,10.0,45,0.00,,,0.00,Wunderground v.1.15,2013-04-07 19:50:00,
2013-04-07 15:55:00,66.2,44.8,30.03,SE,133,5.0,10.0,46,0.00,,,0.00,Wunderground v.1.15,2013-04-07 19:55:00,
2013-04-07 16:00:00,65.8,45.0,30.03,ESE,109,6.0,6.0,47,0.00,,,0.00,Wunderground v.1.15,2013-04-07 20:00:00,
2013-04-07 16:05:00,65.9,45.1,30.03,ESE,117,7.0,14.0,47,0.00,,,0.00,Wunderground v.1.15,2013-04-07 20:05:00,
2013-04-07 16:10:00,66.1,44.7,30.03,ESE,117,6.0,6.0,46,0.00,,,0.00,Wunderground v.1.15,2013-04-07 20:10:00,
2013-04-07 16:15:00,66.5,44.5,30.03,SE,126,5.0,9.0,45,0.00,,,0.00,Wunderground v.1.15,2013-04-07 20:15:00,
2013-04-07 16:20:00,66.3,44.3,30.03,SE,130,5.0,5.0,45,0.00,,,0.00,Wunderground v.1.15,2013-04-07 20:20:00,
2013-04-07 16:25:00,66.3,44.9,30.03,SE,137,5.0,5.0,46,0.00,,,0.00,Wunderground v.1.15,2013-04-07 20:25:00,
2013-04-07 16:30:00,66.6,45.2,30.03,ESE,123,3.0,4.0,46,0.00,,,0.00,Wunderground v.1.15,2013-04-07 20:30:00,
2013-04-07 16:35:00,66.8,45.3,30.02,SE,132,4.0,4.0,46,0.00,,,0.00,Wunderground v.1.15,2013-04-07 20:35:00,
2013-04-07 16:40:00,66.9,44.9,30.03,SW,223,6.0,6.0,45,0.00,,,0.00,Wunderground v.1.15,2013-04-07 20:40:00,
2013-04-07 16:45:00,67.2,43.3,30.02,ENE,67,4.0,6.0,42,0.00,,,0.00,Wunderground v.1.15,2013-04-07 20:45:00,
2013-04-07 16:50:00,67.4,43.5,30.02,ESE,123,3.0,5.0,42,0.00,,,0.00,Wunderground v.1.15,2013-04-07 20:50:00,
2013-04-07 16:55:00,67.9,44.6,30.02,SSE,163,2.0,5.0,43,0.00,,,0.00,Wunderground v.1.15,2013-04-07 20:55:00,
2013-04-07 17:00:00,67.9,43.3,30.02,SE,126,3.0,10.0,41,0.00,,,0.00,Wunderground v.1.15,2013-04-07 21:00:00,
2013-04-07 17:05:00,67.6,43.7,30.02,ESE,119,5.0,13.0,42,0.00,,,0.00,Wunderground v.1.15,2013-04-07 21:05:00,
2013-04-07 17:10:00,67.4,44.1,30.03,ENE,75,5.0,5.0,43,0.00,,,0.00,Wunderground v.1.15,2013-04-07 21:10:00,
2013-04-07 17:15:00,67.8,44.5,30.03,SSE,148,4.0,5.0,43,0.00,,,0.00,Wunderground v.1.15,2013-04-07 21:15:00,
2013-04-07 17:20:00,67.9,44.0,30.03,SE,126,2.0,2.0,42,0.00,,,0.00,Wunderground v.1.15,2013-04-07 21:20:00,
2013-04-07 17:25:00,68.1,44.1,30.03,SW,215,2.0,2.0,42,0.00,,,0.00,Wunderground v.1.15,2013-04-07 21:25:00,
2013-04-07 17:30:00,68.0,44.0,30.03,WSW,248,3.0,3.0,42,0.00,,,0.00,Wunderground v.1.15,2013-04-07 21:30:00,
2013-04-07 17:35:00,68.1,44.1,30.03,SSW,213,3.0,3.0,42,0.00,,,0.00,Wunderground v.1.15,2013-04-07 21:35:00,
2013-04-07 17:45:00,67.2,43.3,30.02,SSE,156,4.0,6.0,42,0.00,,,0.00,Wunderground v.1.15,2013-04-07 21:45:00,
2013-04-07 17:50:00,66.6,43.4,30.02,West,273,3.0,3.0,43,0.00,,,0.00,Wunderground v.1.15,2013-04-07 21:50:00,
2013-04-07 17:55:00,66.3,43.7,30.02,SSW,205,2.0,3.0,44,0.00,,,0.00,Wunderground v.1.15,2013-04-07 21:55:00,
2013-04-07 18:00:00,66.0,44.0,30.02,ESE,112,2.0,5.0,45,0.00,,,0.00,Wunderground v.1.15,2013-04-07 22:00:00,
2013-04-07 18:05:00,65.6,43.7,30.02,SE,125,3.0,5.0,45,0.00,,,0.00,Wunderground v.1.15,2013-04-07 22:05:00,
2013-04-07 18:10:00,65.3,44.5,30.02,ESE,123,5.0,6.0,47,0.00,,,0.00,Wunderground v.1.15,2013-04-07 22:10:00,
2013-04-07 18:15:00,65.0,43.7,30.03,ESE,107,6.0,6.0,46,0.00,,,0.00,Wunderground v.1.15,2013-04-07 22:15:00,
2013-04-07 18:20:00,65.2,43.9,30.03,SSE,167,5.0,5.0,46,0.00,,,0.00,Wunderground v.1.15,2013-04-07 22:20:00,
2013-04-07 18:25:00,65.5,43.6,30.03,SE,125,3.0,7.0,45,0.00,,,0.00,Wunderground v.1.15,2013-04-07 22:25:00,
2013-04-07 18:30:00,65.4,44.1,30.03,SE,130,3.0,3.0,46,0.00,,,0.00,Wunderground v.1.15,2013-04-07 22:30:00,
2013-04-07 18:35:00,65.2,43.9,30.02,SE,126,3.0,6.0,46,0.00,,,0.00,Wunderground v.1.15,2013-04-07 22:35:00,
2013-04-07 18:40:00,65.0,43.7,30.03,SE,135,3.0,3.0,46,0.00,,,0.00,Wunderground v.1.15,2013-04-07 22:40:00,
2013-04-07 18:45:00,65.0,44.3,30.02,East,101,2.0,3.0,47,0.00,,,0.00,Wunderground v.1.15,2013-04-07 22:45:00,
2013-04-07 18:50:00,64.9,44.2,30.03,SE,134,2.0,2.0,47,0.00,,,0.00,Wunderground v.1.15,2013-04-07 22:50:00,
2013-04-07 18:55:00,64.7,44.5,30.02,ESE,123,2.0,3.0,48,0.00,,,0.00,Wunderground v.1.15,2013-04-07 22:55:00,
2013-04-07 19:05:00,64.2,44.1,30.02,SE,130,4.0,4.0,48,0.00,,,0.00,Wunderground v.1.15,2013-04-07 23:05:00,
2013-04-07 19:10:00,64.1,44.5,30.02,ESE,114,4.0,4.0,49,0.00,,,0.00,Wunderground v.1.15,2013-04-07 23:10:00,
2013-04-07 19:15:00,64.1,44.0,30.03,ESE,109,3.0,4.0,48,0.00,,,0.00,Wunderground v.1.15,2013-04-07 23:15:00,
2013-04-07 19:20:00,64.2,44.1,30.03,ESE,117,3.0,3.0,48,0.00,,,0.00,Wunderground v.1.15,2013-04-07 23:20:00,
2013-04-07 19:25:00,64.2,43.5,30.03,ESE,120,3.0,3.0,47,0.00,,,0.00,Wunderground v.1.15,2013-04-07 23:25:00,
2013-04-07 19:30:00,64.2,43.5,30.03,SE,128,2.0,3.0,47,0.00,,,0.00,Wunderground v.1.15,2013-04-07 23:30:00,
2013-04-07 19:35:00,64.2,44.1,30.03,ESE,122,2.0,3.0,48,0.00,,,0.00,Wunderground v.1.15,2013-04-07 23:35:00,
2013-04-07 19:40:00,64.0,43.9,30.03,ESE,118,2.0,2.0,48,0.00,,,0.00,Wunderground v.1.15,2013-04-07 23:40:00,
2013-04-07 19:45:00,63.8,44.3,30.03,ESE,117,2.0,2.0,49,0.00,,,0.00,Wunderground v.1.15,2013-04-07 23:45:00,
2013-04-07 19:50:00,63.5,44.5,30.03,ESE,117,2.0,2.0,50,0.00,,,0.00,Wunderground v.1.15,2013-04-07 23:50:00,
2013-04-07 19:55:00,63.2,44.2,30.04,ESE,117,2.0,2.0,50,0.00,,,0.00,Wunderground v.1.15,2013-04-07 23:55:00,
2013-04-07 20:00:00,62.8,44.4,30.04,ESE,117,1.0,1.0,51,0.00,,,0.00,Wunderground v.1.15,2013-04-08 00:00:00,
2013-04-07 20:05:00,62.4,44.0,30.04,ESE,117,0.0,2.0,51,0.00,,,0.00,Wunderground v.1.15,2013-04-08 00:05:00,
2013-04-07 20:10:00,62.1,44.3,30.03,ESE,117,1.0,2.0,52,0.00,,,0.00,Wunderground v.1.15,2013-04-08 00:10:00,
2013-04-07 20:15:00,61.9,44.6,30.03,ESE,117,1.0,2.0,53,0.00,,,0.00,Wunderground v.1.15,2013-04-08 00:15:00,
2013-04-07 20:20:00,61.6,44.3,30.03,ESE,117,1.0,1.0,53,0.00,,,0.00,Wunderground v.1.15,2013-04-08 00:20:00,
2013-04-07 20:25:00,61.5,44.2,30.04,ESE,117,1.0,1.0,53,0.00,,,0.00,Wunderground v.1.15,2013-04-08 00:25:00,
2013-04-07 20:30:00,61.4,44.1,30.04,ESE,117,1.0,2.0,53,0.00,,,0.00,Wunderground v.1.15,2013-04-08 00:30:00,
2013-04-07 20:35:00,61.3,44.5,30.04,ESE,118,2.0,2.0,54,0.00,,,0.00,Wunderground v.1.15,2013-04-08 00:35:00,
2013-04-07 20:40:00,60.9,44.6,30.03,ESE,119,2.0,3.0,55,0.00,,,0.00,Wunderground v.1.15,2013-04-08 00:40:00,
2013-04-07 20:45:00,60.6,44.3,30.04,ESE,119,2.0,3.0,55,0.00,,,0.00,Wunderground v.1.15,2013-04-08 00:45:00,
2013-04-07 20:50:00,60.4,44.6,30.04,ESE,121,2.0,4.0,56,0.00,,,0.00,Wunderground v.1.15,2013-04-08 00:50:00,
2013-04-07 20:55:00,60.1,44.8,30.03,ESE,117,2.0,4.0,57,0.00,,,0.00,Wunderground v.1.15,2013-04-08 00:55:00,
2013-04-07 21:00:00,60.1,44.3,30.03,ESE,116,2.0,2.0,56,0.00,,,0.00,Wunderground v.1.15,2013-04-08 01:00:00,
2013-04-07 21:05:00,60.1,44.3,30.03,ESE,116,1.0,2.0,56,0.00,,,0.00,Wunderground v.1.15,2013-04-08 01:05:00,
2013-04-07 21:15:00,60.0,44.3,30.03,ESE,117,1.0,3.0,56,0.00,,,0.00,Wunderground v.1.15,2013-04-08 01:15:00,
2013-04-07 21:20:00,59.9,44.6,30.03,ESE,117,1.0,2.0,57,0.00,,,0.00,Wunderground v.1.15,2013-04-08 01:20:00,
2013-04-07 21:25:00,59.8,44.5,30.03,ESE,117,1.0,2.0,57,0.00,,,0.00,Wunderground v.1.15,2013-04-08 01:25:00,
2013-04-07 21:30:00,59.7,44.4,30.03,ESE,118,2.0,2.0,57,0.00,,,0.00,Wunderground v.1.15,2013-04-08 01:30:00,
2013-04-07 21:35:00,59.8,44.5,30.03,ESE,119,2.0,2.0,57,0.00,,,0.00,Wunderground v.1.15,2013-04-08 01:35:00,
2013-04-07 21:40:00,59.7,44.4,30.03,ESE,119,1.0,1.0,57,0.00,,,0.00,Wunderground v.1.15,2013-04-08 01:40:00,
2013-04-07 21:45:00,59.7,44.4,30.04,ESE,119,0.0,2.0,57,0.00,,,0.00,Wunderground v.1.15,2013-04-08 01:45:00,
2013-04-07 21:50:00,59.8,44.5,30.04,ESE,119,1.0,1.0,57,0.00,,,0.00,Wunderground v.1.15,2013-04-08 01:50:00,
2013-04-07 21:55:00,59.8,44.5,30.04,ESE,118,0.0,1.0,57,0.00,,,0.00,Wunderground v.1.15,2013-04-08 01:55:00,
2013-04-07 22:00:00,59.7,44.9,30.04,ESE,118,0.0,1.0,58,0.00,,,0.00,Wunderground v.1.15,2013-04-08 02:00:00,
2013-04-07 22:05:00,59.7,44.4,30.04,ESE,119,0.0,1.0,57,0.00,,,0.00,Wunderground v.1.15,2013-04-08 02:05:00,
2013-04-07 22:15:00,59.4,44.6,30.05,ESE,119,0.0,1.0,58,0.00,,,0.00,Wunderground v.1.15,2013-04-08 02:15:00,
2013-04-07 22:20:00,59.2,44.4,30.05,ESE,119,0.0,0.0,58,0.00,,,0.00,Wunderground v.1.15,2013-04-08 02:20:00,
2013-04-07 22:25:00,59.0,44.7,30.04,ESE,118,0.0,0.0,59,0.00,,,0.00,Wunderground v.1.15,2013-04-08 02:25:00,
2013-04-07 22:30:00,59.0,44.7,30.04,ESE,118,0.0,1.0,59,0.00,,,0.00,Wunderground v.1.15,2013-04-08 02:30:00,
2013-04-07 22:35:00,59.0,44.7,30.04,ESE,118,1.0,2.0,59,0.00,,,0.00,Wunderground v.1.15,2013-04-08 02:35:00,
2013-04-07 22:40:00,58.8,44.9,30.03,ESE,119,2.0,2.0,60,0.00,,,0.00,Wunderground v.1.15,2013-04-08 02:40:00,
2013-04-07 22:45:00,58.5,44.7,30.03,ESE,118,3.0,3.0,60,0.00,,,0.00,Wunderground v.1.15,2013-04-08 02:45:00,
2013-04-07 22:50:00,58.2,44.8,30.03,ESE,123,3.0,3.0,61,0.00,,,0.00,Wunderground v.1.15,2013-04-08 02:50:00,
2013-04-07 22:55:00,58.4,44.6,30.03,ESE,123,3.0,3.0,60,0.00,,,0.00,Wunderground v.1.15,2013-04-08 02:55:00,
2013-04-07 23:00:00,58.7,44.8,30.03,ESE,118,2.0,2.0,60,0.00,,,0.00,Wunderground v.1.15,2013-04-08 03:00:00,
2013-04-07 23:05:00,58.6,44.8,30.02,ESE,118,2.0,5.0,60,0.00,,,0.00,Wunderground v.1.15,2013-04-08 03:05:00,
2013-04-07 23:10:00,59.0,45.1,30.03,SE,125,2.0,2.0,60,0.00,,,0.00,Wunderground v.1.15,2013-04-08 03:10:00,
2013-04-07 23:20:00,59.0,45.1,30.03,SE,126,1.0,2.0,60,0.00,,,0.00,Wunderground v.1.15,2013-04-08 03:20:00,
2013-04-07 23:25:00,59.0,45.1,30.03,SE,126,1.0,2.0,60,0.00,,,0.00,Wunderground v.1.15,2013-04-08 03:25:00,
2013-04-07 23:30:00,59.0,45.1,30.03,SE,127,1.0,1.0,60,0.00,,,0.00,Wunderground v.1.15,2013-04-08 03:30:00,
2013-04-07 23:35:00,59.0,45.1,30.03,SE,125,2.0,2.0,60,0.00,,,0.00,Wunderground v.1.15,2013-04-08 03:35:00,
2013-04-07 23:40:00,59.0,44.7,30.03,ESE,105,2.0,2.0,59,0.00,,,0.00,Wunderground v.1.15,2013-04-08 03:40:00,
2013-04-07 23:45:00,59.0,45.1,30.03,ESE,105,1.0,2.0,60,0.00,,,0.00,Wunderground v.1.15,2013-04-08 03:45:00,
2013-04-07 23:50:00,59.0,45.1,30.04,ESE,105,0.0,2.0,60,0.00,,,0.00,Wunderground v.1.15,2013-04-08 03:50:00,
2013-04-07 23:55:00,59.0,45.1,30.03,ESE,105,0.0,2.0,60,0.00,,,0.00,Wunderground v.1.15,2013-04-08 03:55:00,